UAL5956 ZBAD-ZSSS

Flight info

Callsign UAL5956
Flight time N/A
Altitude 35100
Route ELKUR4K ELKUR W40 YQG/K0872S1100 W142 DALIM/K0867S1130 A593 DPX A470 DALNU W166 ZJ W167 SASAN SAS71A
Aircraft B764/H-SDE3FGHIM3RWXY/LB1

Departure

Time 2026-05-07 11:44
Airport Beijing Daxing International Airport (ZBAD)

Arrival

Time N/A
Airport Shanghai Hongqiao International Airport (ZSSS)
Time Latitude Longitude Altitude Speed Heading
2026-05-07 11:15 39.50400 116.41119 93 ft 0 kts
2026-05-07 11:26 39.50399 116.41119 93 ft 0 kts
2026-05-07 11:30 39.50388 116.41117 93 ft 2 kts
2026-05-07 11:30 39.50373 116.41114 93 ft 2 kts
2026-05-07 11:30 39.50358 116.41111 93 ft 2 kts
2026-05-07 11:30 39.50343 116.41108 93 ft 2 kts
2026-05-07 11:31 39.50328 116.41104 93 ft 2 kts 11°
2026-05-07 11:31 39.50315 116.41098 93 ft 2 kts 33°
2026-05-07 11:31 39.50303 116.41086 93 ft 2 kts 50°
2026-05-07 11:31 39.50295 116.41069 93 ft 2 kts 67°
2026-05-07 11:32 39.50291 116.41047 93 ft 0 kts 83°
2026-05-07 11:34 39.50292 116.41057 93 ft 3 kts 83°
2026-05-07 11:34 39.50297 116.41113 93 ft 8 kts 82°
2026-05-07 11:34 39.50306 116.41196 93 ft 9 kts 82°
2026-05-07 11:35 39.50314 116.41277 93 ft 8 kts 82°
2026-05-07 11:35 39.50321 116.41351 93 ft 8 kts 82°
2026-05-07 11:35 39.50322 116.41423 93 ft 6 kts 103°
2026-05-07 11:35 39.50302 116.41457 93 ft 3 kts 154°
2026-05-07 11:36 39.50282 116.41462 93 ft 3 kts 171°
2026-05-07 11:36 39.50250 116.41470 93 ft 6 kts 166°
2026-05-07 11:36 39.50221 116.41492 93 ft 2 kts 98°
2026-05-07 11:36 39.50230 116.41546 93 ft 11 kts 77°
2026-05-07 11:37 39.50245 116.41653 93 ft 11 kts 80°
2026-05-07 11:37 39.50257 116.41751 93 ft 9 kts 84°
2026-05-07 11:37 39.50264 116.41846 93 ft 11 kts 83°
2026-05-07 11:37 39.50273 116.41955 93 ft 11 kts 83°
2026-05-07 11:38 39.50282 116.42055 93 ft 10 kts 83°
2026-05-07 11:38 39.50291 116.42149 93 ft 9 kts 83°
2026-05-07 11:38 39.50303 116.42226 93 ft 7 kts 68°
2026-05-07 11:38 39.50351 116.42283 93 ft 12 kts 12°
2026-05-07 11:39 39.50447 116.42273 93 ft 14 kts 352°
2026-05-07 11:39 39.50557 116.42255 93 ft 15 kts 352°
2026-05-07 11:39 39.50660 116.42237 93 ft 14 kts 352°
2026-05-07 11:39 39.50748 116.42224 93 ft 11 kts 353°
2026-05-07 11:40 39.50824 116.42213 93 ft 10 kts 353°
2026-05-07 11:40 39.50929 116.42197 93 ft 19 kts 352°
2026-05-07 11:40 39.51059 116.42176 93 ft 17 kts 352°
2026-05-07 11:40 39.51173 116.42160 93 ft 15 kts 352°
2026-05-07 11:41 39.51275 116.42142 93 ft 13 kts 351°
2026-05-07 11:41 39.51363 116.42134 93 ft 11 kts
2026-05-07 11:41 39.51412 116.42195 93 ft 11 kts 71°
2026-05-07 11:41 39.51429 116.42339 93 ft 20 kts 82°
2026-05-07 11:42 39.51448 116.42524 93 ft 20 kts 82°
2026-05-07 11:42 39.51463 116.42702 93 ft 18 kts 82°
2026-05-07 11:42 39.51479 116.42860 93 ft 17 kts 84°
2026-05-07 11:42 39.51492 116.43005 93 ft 15 kts 81°
2026-05-07 11:43 39.51545 116.43097 93 ft 13 kts 18°
2026-05-07 11:43 39.51640 116.43151 93 ft 15 kts 51°
2026-05-07 11:43 39.51642 116.43278 93 ft 18 kts 102°
2026-05-07 11:43 39.51579 116.43631 93 ft 65 kts 102°
2026-05-07 11:44 39.51435 116.44428 93 ft 114 kts 104°
2026-05-07 11:44 39.51221 116.45614 93 ft 156 kts 102°
2026-05-07 11:44 39.50952 116.47111 208 ft 182 kts 101°
2026-05-07 11:44 39.50690 116.48704 732 ft 183 kts 99°
2026-05-07 11:45 39.50415 116.50343 1213 ft 190 kts 99°
2026-05-07 11:45 39.50096 116.51969 1831 ft 187 kts 98°
2026-05-07 11:45 39.49798 116.53577 2421 ft 188 kts 109°
2026-05-07 11:45 39.48929 116.54946 2693 ft 213 kts 147°
2026-05-07 11:46 39.47582 116.55564 3386 ft 204 kts 169°
2026-05-07 11:46 39.46601 116.55702 3496 ft 218 kts 176°
2026-05-07 11:46 39.44447 116.55898 3623 ft 251 kts 174°
2026-05-07 11:46 39.42619 116.56114 3805 ft 275 kts 174°
2026-05-07 11:47 39.40635 116.56363 4309 ft 288 kts 174°
2026-05-07 11:47 39.38678 116.56616 5140 ft 288 kts 174°
2026-05-07 11:47 39.36668 116.56880 5781 ft 294 kts 174°
2026-05-07 11:47 39.34624 116.57150 6542 ft 297 kts 175°
2026-05-07 11:48 39.32572 116.57423 7267 ft 300 kts 174°
2026-05-07 11:48 39.30472 116.57703 8051 ft 302 kts 175°
2026-05-07 11:48 39.28396 116.57979 8767 ft 307 kts 175°
2026-05-07 11:48 39.26278 116.58261 9503 ft 309 kts 175°
2026-05-07 11:49 39.24116 116.58549 10180 ft 314 kts 175°
2026-05-07 11:49 39.21876 116.58845 10394 ft 338 kts 175°
2026-05-07 11:49 39.19416 116.59171 10495 ft 367 kts 175°
2026-05-07 11:49 39.16814 116.59518 10702 ft 393 kts 174°
2026-05-07 11:50 39.14058 116.59885 11566 ft 399 kts 175°
2026-05-07 11:50 39.11297 116.60253 12364 ft 407 kts 175°
2026-05-07 11:50 39.08461 116.60629 13226 ft 414 kts 174°
2026-05-07 11:50 39.05547 116.61016 13978 ft 423 kts 175°
2026-05-07 11:51 39.02637 116.61403 14924 ft 426 kts 175°
2026-05-07 11:51 38.99640 116.61800 15742 ft 433 kts 175°
2026-05-07 11:51 38.96642 116.62197 16586 ft 438 kts 175°
2026-05-07 11:51 38.93595 116.62599 17389 ft 445 kts 175°
2026-05-07 11:52 38.90530 116.63004 18261 ft 450 kts 175°
2026-05-07 11:52 38.87392 116.63419 19055 ft 456 kts 176°
2026-05-07 11:52 38.85260 116.63700 19622 ft 459 kts 176°
2026-05-07 11:52 38.81014 116.64259 20633 ft 468 kts 176°
2026-05-07 11:53 38.77768 116.64686 21413 ft 473 kts 177°